RH
74 74 77 80 81 79 76 75 73 74 78 81 83 87 88 93 98 92 92 95 88 85 88 88 78 74 71 52 42 40 40 40 38 36 37 40 42 45 50 53 53 52 46
64 62 60 65 71 70 66 64 71 78 82 83 84 85 86 90 89 90 98 87 83 92 85 72 72 62 49 43 42 42 44 44 41 40 42 42 42 46 51 56 56 53 50
45 46 46 47 50 61 66 62 59 59 60 62 60 64 76 85 88 89 88 87 92 86 72 69 59 46 44 43 41 39 37 38 41 44 44 43 43 48 53 55 54 52 54
37 38 38 37 35 35 34 34 32 33 37 46 56 57 68 77 82 86 85 83 85 72 74 60 47 44 37 32 32 32 33 34 38 44 45 44 47 53 56 56 56 55 50
34 34 35 36 37 38 38 38 36 35 34 43 46 48 57 74 80 81 80 80 85 68 61 49 46 37 36 35 34 36 37 40 43 46 46 48 54 59 58 54 54 63 64
34 34 33 31 30 34 38 39 40 41 40 41 45 46 51 64 80 86 87 86 85 70 48 46 42 42 42 45 44 42 43 50 49 48 52 55 60 65 69 68 39 18 25
35 35 34 32 30 31 43 46 47 46 44 44 45 48 53 60 72 86 89 90 72 58 50 45 49 52 50 44 41 45 52 54 56 58 55 52 63 52 25 32 49 56 51
34 32 31 30 30 30 36 53 62 62 60 57 54 62 68 74 84 91 84 71 64 55 51 57 58 56 49 46 50 56 55 58 63 56 26 25 28 32 43 51 48 54 52
36 35 34 33 35 35 40 48 55 69 72 67 66 70 69 78 83 81 72 68 61 57 61 62 60 49 42 52 54 54 62 67 59 29 27 42 54 56 56 50 48 61 64
40 37 36 36 38 42 44 54 63 74 82 79 79 82 87 87 82 77 80 72 60 61 63 65 61 45 45 60 61 64 68 61 35 25 40 49 55 53 53 59 56 49 68
46 45 44 42 37 49 53 59 75 77 92 93 94 92 91 85 80 81 85 72 70 69 68 69 63 46 53 64 69 73 66 37 29 39 49 60 61 66 71 66 46 58 68
47 51 52 53 52 47 64 75 86 92 100 100 99 95 90 88 88 93 93 81 78 78 74 73 62 50 55 69 80 80 40 29 44 58 63 63 46 52 60 51 44 42 62
49 49 52 55 54 58 56 79 90 98 89 99 98 98 98 96 95 98 98 93 90 88 83 79 58 62 64 80 89 76 28 38 63 65 58 46 43 43 44 74 74 50 41
54 56 58 61 66 64 66 63 97 100 100 100 97 94 99 98 98 98 99 99 98 93 87 76 65 80 87 92 94 72 29 34 49 56 60 55 42 43 44 43 41 38 35
60 60 57 65 72 94 97 67 74 98 99 98 97 100 89 99 99 98 99 99 96 91 81 70 82 90 96 99 97 75 30 37 37 49 55 39 38 40 38 36 34 32 31
68 74 72 62 73 83 92 96 84 97 98 94 98 96 94 96 98 97 95 96 90 82 84 89 90 96 98 98 98 82 32 34 37 40 34 30 32 31 30 28 28 28 29
60 75 81 86 91 85 89 96 97 100 97 98 91 90 91 97 92 94 97 98 98 93 90 98 96 95 99 98 99 94 49 34 90 93 29 23 24 23 23 23 24 25 27
55 68 78 92 94 95 96 93 96 96 96 97 98 98 97 96 97 97 97 97 94 96 96 98 96 95 97 97 99 96 84 82 62 24 23 21 46 21 20 21 22 24 23
67 73 76 83 95 96 96 96 96 97 97 96 97 97 97 97 98 98 96 91 91 91 94 93 96 95 94 90 96 97 92 77 54 43 20 30 59 30 44 76 88 70 53
77 76 75 76 82 96 97 96 96 96 96 97 96 97 96 96 95 95 93 91 85 86 87 91 96 98 94 92 95 96 87 32 62 95 95 96 95 95 94 95 97 97 96
75 76 70 66 70 79 94 96 96 96 96 96 96 97 97 93 90 85 83 83 88 88 91 95 97 98 98 95 95 95 96 96 96 96 96 97 96 96 98 98 97 97 98
73 76 77 73 70 72 85 97 96 96 96 96 96 96 96 95 96 90 91 93 94 94 93 93 97 94 96 98 97 96 96 96 96 96 96 96 97 97 96 96 97 95 88
84 87 90 89 82 61 43 53 83 95 96 96 96 96 96 95 97 99 98 99 96 94 94 95 96 96 98 98 97 97 96 96 96 96 96 97 97 96 96 96 97 99 93
95 94 92 95 96 84 86 50 30 59 93 96 96 96 96 96 97 96 96 98 96 95 94 95 98 98 98 97 96 97 97 97 96 96 96 96 97 99 97 97 98 84 77
100 99 96 94 95 96 93 97 89 58 49 95 82 92 96 95 61 45 59 74 91 97 97 96 98 99 97 97 97 97 96 96 96 96 96 97 97 96 96 75 61 85 100
100 100 98 97 96 98 96 97 96 96 82 28 22 14 26 29 50 94 98 100 100 98 98 98 98 97 96 96 97 96 96 96 96 96 96 92 76 64 66 86 100 100 100
Wind_Speed
21 23 25 28 31 31 31 30 28 27 26 25 24 24 22 22 21 21 22 22 23 28 32 31 30 32 32 29 28 29 29 30 30 31 31 31 31 31 30 28 26 27 29
20 21 21 24 27 29 31 31 30 28 27 27 29 28 26 24 23 23 23 24 28 27 27 29 29 29 29 28 27 28 28 29 31 31 31 32 33 32 31 29 27 26 25
18 20 24 26 27 28 29 30 31 32 33 32 30 28 28 27 26 26 27 28 30 30 31 28 27 27 27 27 26 27 28 30 31 31 32 32 32 31 30 27 25 25 23
18 20 21 22 23 24 25 26 26 28 31 31 31 30 29 29 31 30 30 31 33 32 29 27 26 27 27 26 27 29 30 31 32 32 32 31 30 28 26 23 21 18 17
22 24 26 27 28 30 30 30 29 28 27 29 29 30 30 30 31 31 32 33 33 29 28 27 27 27 27 28 29 30 31 31 31 31 30 28 26 23 21 18 15 14 12
24 27 27 28 29 30 30 33 33 31 30 29 30 30 31 31 31 33 34 33 32 29 27 26 27 28 29 29 30 30 29 29 28 27 25 23 21 17 15 12 9 8 9
23 26 29 29 30 30 30 29 31 32 32 31 31 31 31 31 31 31 30 30 29 28 26 26 28 29 29 29 29 28 28 26 24 22 20 16 12 10 8 6 5 6 7
24 24 26 29 31 32 32 30 29 29 30 30 30 31 31 31 30 29 28 28 27 27 26 27 28 29 30 29 27 26 25 23 20 18 14 12 9 9 10 9 8 7 7
26 27 28 28 29 32 33 33 32 31 31 29 30 31 31 31 29 28 28 28 28 28 27 28 29 29 28 27 25 24 22 20 17 15 13 11 9 11 9 9 11 10 12
28 27 28 28 29 30 32 33 33 32 32 32 31 31 31 30 30 29 29 30 29 30 30 29 29 28 27 25 23 22 21 19 17 16 16 14 11 11 10 9 11 10 10
31 31 29 27 28 28 31 34 34 34 34 34 33 33 33 32 32 31 31 32 31 31 31 31 30 29 26 25 24 24 21 19 17 17 16 15 14 14 14 12 11 13 12
38 36 35 32 28 28 30 31 34 35 34 34 35 35 34 34 34 33 32 32 32 31 32 32 31 29 27 26 24 23 21 20 20 19 19 18 17 17 17 17 17 15 16
35 36 37 36 34 30 29 31 33 36 36 32 36 35 36 37 36 35 34 33 33 33 32 33 32 29 27 26 25 24 23 24 22 21 20 19 18 19 19 18 17 17 17
34 35 37 36 35 33 30 31 36 39 36 39 39 31 31 34 37 36 36 36 35 34 34 34 32 28 26 26 25 25 26 26 27 24 23 20 20 20 21 22 20 20 18
33 33 33 37 34 34 39 31 35 29 30 33 30 27 35 31 30 35 35 35 35 34 35 32 28 24 24 26 26 27 29 28 27 26 25 23 22 22 22 21 21 21 21
29 30 31 31 33 35 34 32 31 32 35 37 40 32 28 29 30 28 31 32 28 29 25 25 22 23 24 25 27 29 29 28 27 26 26 24 23 23 23 23 23 23 24
30 30 30 30 36 35 37 34 34 31 36 36 31 30 31 31 33 28 25 26 24 25 22 20 20 21 23 26 27 29 28 27 32 27 27 25 24 24 24 24 25 25 25
30 30 31 31 30 30 29 31 31 33 29 27 35 33 29 30 30 28 23 23 22 22 21 21 21 21 22 24 25 29 30 31 27 27 27 25 25 26 25 25 25 27 28
27 28 29 30 30 30 30 28 28 31 32 28 22 23 26 25 24 24 25 24 23 24 23 23 22 21 23 23 24 29 29 28 29 30 27 28 30 28 31 33 31 30 31
25 26 27 28 29 29 30 30 30 27 32 33 31 29 30 29 28 29 30 29 27 24 23 24 24 22 22 23 24 26 28 31 34 34 34 32 31 29 26 27 27 26 26
24 24 25 25 26 28 29 30 30 30 30 30 35 34 34 36 33 30 29 30 29 28 26 24 25 24 23 24 24 24 25 26 25 25 24 25 25 23 24 25 26 26 26
26 25 24 24 25 24 25 28 30 30 31 31 31 32 33 35 36 35 31 28 29 29 27 25 27 26 27 26 26 25 24 23 22 21 21 22 23 25 26 27 27 28 28
26 25 24 24 24 23 22 22 22 28 32 32 31 31 31 32 32 30 30 30 30 29 29 29 28 27 27 27 26 27 25 24 24 24 24 25 26 27 28 29 31 31 31
26 26 25 25 25 23 21 19 18 20 22 28 32 31 30 31 30 30 29 30 32 32 30 29 30 30 29 29 28 27 27 27 26 26 27 28 28 29 32 33 32 32 31
25 25 25 25 25 26 24 21 19 17 18 15 13 17 22 22 22 24 27 29 30 30 31 29 29 29 30 31 29 28 27 27 27 28 28 29 32 35 33 31 30 28 28
24 25 26 25 25 25 24 26 23 20 15 15 16 17 19 21 21 21 23 24 25 26 26 26 27 28 27 27 28 28 28 29 29 29 32 35 33 30 27 26 26 26 26
Wind_Direction
244 248 249 252 256 261 266 270 271 270 268 267 264 266 268 258 256 257 259 264 268 272 277 277 285 287 286 285 286 286 289 291 293 293 294 295 294 293 289 283 278 280 279
253 258 258 255 254 256 260 264 266 265 265 265 264 264 262 259 257 259 268 263 267 280 279 284 286 284 283 282 284 286 288 290 291 292 294 295 294 291 289 286 280 277 275
264 264 261 260 259 260 260 261 264 265 265 264 263 261 257 256 254 257 263 268 276 281 285 285 283 283 283 284 285 286 287 288 290 292 293 292 291 290 285 281 278 277 276
267 264 263 262 263 261 260 259 260 262 260 259 257 257 256 256 256 257 261 269 277 283 284 282 282 283 283 285 285 286 288 289 290 290 291 291 289 286 282 277 271 270 269
273 270 267 265 262 259 258 260 263 265 262 254 256 255 254 253 253 255 261 267 272 276 277 280 282 283 285 287 286 286 287 288 289 290 290 290 286 283 277 270 266 262 254
272 268 268 266 265 265 265 262 260 260 259 255 252 251 250 251 253 255 259 263 267 270 272 277 281 284 284 284 286 287 287 288 288 288 288 286 280 272 267 261 257 259 262
269 267 265 266 266 265 263 261 258 255 255 254 253 252 250 249 249 251 255 260 264 268 271 276 282 285 286 286 284 284 283 283 285 286 283 279 269 253 243 240 249 259 272
286 279 272 266 263 263 262 260 259 256 254 253 251 249 249 249 250 252 255 257 261 265 271 278 281 286 287 285 282 281 281 280 281 276 268 254 242 242 246 250 247 269 276
285 285 281 277 271 264 262 260 258 256 254 251 248 247 247 248 250 251 253 256 259 265 272 279 284 286 285 282 280 278 277 276 271 260 245 222 245 258 257 268 259 248 260
290 287 283 280 275 269 262 260 258 255 252 249 246 244 244 245 247 250 253 255 258 264 270 277 283 287 283 280 278 277 272 267 259 248 236 234 242 253 241 242 250 244 268
287 286 285 285 280 271 264 259 256 253 252 250 247 245 245 245 247 249 250 254 260 267 274 281 288 288 279 272 271 270 262 254 243 232 226 235 241 252 252 253 249 259 275
283 282 281 282 280 277 268 258 258 255 255 252 250 248 248 249 250 251 253 257 264 270 275 283 288 286 272 263 263 259 247 238 228 231 243 242 242 246 255 254 255 256 265
279 279 278 276 275 275 270 261 255 253 253 251 249 251 250 249 249 252 255 257 264 268 275 281 285 280 262 255 255 246 238 232 231 238 239 244 247 248 246 252 254 260 266
284 278 275 272 269 267 266 261 250 242 246 244 240 244 254 250 247 249 253 256 259 266 273 276 277 274 254 250 247 241 235 235 234 241 240 247 250 250 253 257 260 261 263
289 285 281 273 268 266 262 257 264 264 254 259 237 246 247 250 257 252 247 249 256 265 270 271 267 264 251 246 242 238 235 237 237 239 244 250 251 252 255 258 260 261 262
290 285 284 278 271 262 265 250 255 251 253 258 258 255 254 251 246 246 253 262 266 264 261 262 263 255 251 249 246 239 237 239 241 242 247 250 251 253 255 258 260 260 259
294 291 286 280 271 279 268 267 244 245 245 245 246 245 239 249 253 254 260 260 256 259 261 262 263 258 252 251 251 240 234 237 243 237 249 249 253 256 257 258 260 262 262
291 290 288 282 280 277 271 272 259 256 257 252 238 235 237 245 241 250 251 252 256 259 262 260 260 259 254 252 250 242 237 238 236 242 247 250 258 261 262 261 263 265 265
295 292 289 288 283 277 271 267 265 248 249 249 245 239 232 228 232 241 249 257 261 260 257 256 257 260 257 251 249 243 241 238 240 243 244 240 248 255 261 266 266 264 265
299 298 295 291 287 279 272 266 264 264 250 243 245 246 245 244 247 254 257 258 260 262 259 253 250 252 257 254 247 248 246 242 250 251 253 250 254 257 256 264 267 266 265
300 301 303 303 296 287 274 268 262 259 257 248 245 241 241 253 258 259 262 255 252 256 260 250 248 245 248 252 252 251 253 255 255 254 253 253 256 258 257 260 265 267 267
297 299 302 306 306 301 290 274 264 260 256 251 247 245 246 250 257 260 259 253 251 254 251 248 243 246 245 247 249 253 254 253 252 252 251 253 254 256 261 267 268 270 269
297 300 301 301 301 300 299 293 281 262 256 251 252 254 253 253 253 250 248 246 248 252 254 250 246 246 246 246 250 249 250 253 252 250 252 254 257 262 267 270 275 272 272
295 297 299 297 296 287 289 291 293 295 279 256 248 247 247 246 247 247 244 244 246 249 252 250 246 244 245 246 248 249 251 252 252 253 255 258 260 263 271 272 269 269 269
295 297 297 297 295 288 273 281 281 283 287 271 262 249 239 241 251 256 252 247 244 244 245 248 246 245 244 244 246 249 251 252 256 260 258 260 264 268 266 266 266 265 265
297 298 297 299 299 290 279 271 278 270 264 269 260 250 241 244 253 253 244 239 237 237 243 246 245 244 245 245 244 248 253 257 259 257 262 269 266 262 261 259 259 261 263